Time,TemperatureF,DewpointF,PressureIn,WindDirection,WindDirectionDegrees,WindSpeedMPH,WindSpeedGustMPH,Humidity,HourlyPrecipIn,Conditions,Clouds,dailyrainin,SoftwareType,DateUTC
2013-08-06 01:22:00,50.0,49.0,-100.00,East,95,4.0,6.0,96,0.00,,,-99.99,,2013-08-06 07:22:00,
2013-08-06 02:22:00,48.0,47.0,-100.00,East,100,4.0,6.0,97,0.00,,,-99.99,,2013-08-06 08:22:00,
2013-08-06 03:01:00,48.0,47.0,-100.00,ESE,120,4.0,6.0,97,0.00,,,-99.99,,2013-08-06 09:01:00,
2013-08-06 03:22:00,48.0,47.0,-100.00,SE,125,4.0,9.0,97,0.00,,,-99.99,,2013-08-06 09:22:00,
2013-08-06 04:01:00,47.0,46.0,-100.00,East,95,2.0,4.0,98,0.00,,,-99.99,,2013-08-06 10:01:00,
2013-08-06 04:22:00,46.0,46.0,-100.00,ESE,105,4.0,6.0,98,0.00,,,-99.99,,2013-08-06 10:22:00,
2013-08-06 05:22:00,45.0,45.0,-100.00,East,100,4.0,4.0,98,0.00,,,-99.99,,2013-08-06 11:22:00,
2013-08-06 06:22:00,45.0,44.0,-100.00,ENE,75,4.0,6.0,98,0.00,,,-99.99,,2013-08-06 12:22:00,
2013-08-06 07:22:00,44.0,43.0,-100.00,East,95,4.0,6.0,98,0.00,,,-99.99,,2013-08-06 13:22:00,
2013-08-06 07:53:00,44.0,44.0,-100.00,East,85,4.0,7.0,98,0.00,,,-99.99,,2013-08-06 13:53:00,
2013-08-06 08:22:00,46.0,45.0,-100.00,ESE,110,6.0,7.0,98,0.00,,,-99.99,,2013-08-06 14:22:00,
2013-08-06 09:22:00,54.0,53.0,-100.00,ENE,75,5.0,6.0,98,0.00,,,-99.99,,2013-08-06 15:22:00,
2013-08-06 10:22:00,63.0,47.0,-100.00,ESE,105,4.0,6.0,56,0.00,,,-99.99,,2013-08-06 16:22:00,
2013-08-06 11:21:00,70.0,46.0,-100.00,WNW,300,9.0,11.0,41,0.00,,,-99.99,,2013-08-06 17:21:00,
2013-08-06 12:22:00,74.0,42.0,-100.00,WNW,285,7.0,11.0,32,0.00,,,-99.99,,2013-08-06 18:22:00,
2013-08-06 13:21:00,80.0,40.0,-100.00,WNW,295,7.0,12.0,24,0.00,,,-99.99,,2013-08-06 19:21:00,
2013-08-06 14:22:00,76.0,39.0,-100.00,WNW,285,10.0,18.0,26,0.00,,,-99.99,,2013-08-06 20:22:00,
2013-08-06 15:22:00,63.0,41.0,-100.00,SW,235,8.0,13.0,43,0.00,,,-99.99,,2013-08-06 21:22:00,
2013-08-06 16:22:00,57.0,52.0,-100.00,North,0,4.0,7.0,81,0.00,,,-99.99,,2013-08-06 22:22:00,
2013-08-06 17:22:00,56.0,53.0,-100.00,ENE,60,6.0,10.0,90,0.00,,,-99.99,,2013-08-06 23:22:00,
2013-08-06 18:21:00,59.0,50.0,-100.00,East,90,4.0,11.0,73,0.00,,,-99.99,,2013-08-07 00:21:00,
2013-08-06 19:22:00,60.0,51.0,-100.00,NNE,15,6.0,9.0,71,0.00,,,-99.99,,2013-08-07 01:22:00,
2013-08-06 20:22:00,59.0,51.0,-100.00,NNE,20,4.0,7.0,74,0.00,,,-99.99,,2013-08-07 02:22:00,
2013-08-06 21:22:00,56.0,51.0,-100.00,East,90,7.0,8.0,83,0.00,,,-99.99,,2013-08-07 03:22:00,
2013-08-06 22:21:00,56.0,49.0,-100.00,NE,45,12.0,16.0,77,0.00,,,-99.99,,2013-08-07 04:21:00,
2013-08-06 23:22:00,55.0,49.0,-100.00,NE,55,7.0,11.0,81,0.00,,,-99.99,,2013-08-07 05:22:00,